Back to catalog

STARLINK-37956

AliveCommunicationsSSO
NORAD 69711·PAYLOAD·🇺🇸 United States

Launched Jun 28, 2026 from Vandenberg Space Force Base

Loading…

Next Passes (next 24 hours)

TLE

FreshSource: CelesTrak SupGP

Epoch: Sep 14, 2026, 15:16 UTC

1 69711C 26147H   26257.63659722 -.00005718  00000+0 -17750-3 0  2578
2 69711  97.2842 294.0487 0001286  94.0159 252.9950 15.33443977    16

Track STARLINK-37956 in real time with AllMySat

Download on the App Store